User: anonymous   Login
Location: Unspecified
(0.0000°N, 0.0000°E)
Time: 10:18:58
(UTC+00:00)
Language:

Asterix - Orbit

View from above orbital plane
View from above orbital plane
View from above satellite
View from above satellite

Ground track
Ground track

The orbit data is extracted from the following two-line orbital elements,

1 01778U 65096A   21168.90956216  .00000034  00000-0  71206-5 0  9993
2 01778  34.2623  44.9420 0751868 293.4632  58.8750 13.47002146718357
Epoch (UTC): 17 June 2021 21:49:46
Eccentricity: 0.0751868
inclination: 34.2623°
perigee height: 522 km
apogee height: 1644 km
right ascension of ascending node: 44.9420°
argument of perigee: 293.4632°
revolutions per day: 13.47002146
mean anomaly at epoch: 58.8750°
orbit number at epoch: 71835

The dashed part of the orbit path shows where the satellite is in the earth's shadow,  

DLR